Temp
-1 -0 -0 0 0 -0 0 -0 0 0 0 0 -0 -0 0 -1 -0 -0 -1 -1 -1 -1 -1 1 -0 0 0 0 1 1 1 1 1 1 1 1 1 0
-1 -1 -1 -2 -1 -1 -0 -1 0 -1 -1 -0 0 -0 -1 -1 -0 -1 -1 -1 -1 -1 -0 0 -1 -1 -0 -0 -0 -0 0 0 1 0 1 0 -0 -0
-2 -2 -1 -1 -1 -1 -1 -1 -1 -1 -1 -1 -1 -0 -1 -1 -1 -1 -1 -1 -1 -1 -1 -1 -1 -1 -1 -1 -1 -0 -1 -1 -1 -1 -1 -1 -1 -1
-3 -3 -2 -2 -2 -2 -2 -2 -2 -1 -1 -1 -2 -1 -1 -1 -1 -1 -2 -2 -2 -2 -2 -2 -3 -2 -1 -3 -2 -1 -1 -2 -2 -1 -1 -1 -1 -2
-3 -3 -3 -3 -3 -3 -3 -3 -3 -3 -3 -2 -2 -2 -2 -2 -2 -2 -2 -2 -2 -3 -3 -3 -3 -3 -2 -2 -2 -2 -2 -2 -2 -2 -2 -2 -2 -2
-4 -4 -4 -4 -4 -3 -3 -3 -4 -3 -3 -3 -3 -4 -3 -3 -3 -3 -3 -3 -2 -2 -3 -3 -3 -4 -4 -3 -3 -3 -2 -3 -3 -3 -4 -4 -3 -3
-6 -6 -5 -5 -5 -5 -4 -4 -4 -4 -4 -4 -4 -4 -4 -4 -4 -4 -3 -4 -4 -4 -4 -4 -4 -5 -5 -5 -4 -4 -4 -5 -5 -5 -4 -5 -5 -5
-7 -7 -7 -6 -6 -6 -5 -5 -5 -5 -5 -5 -4 -4 -4 -5 -5 -5 -5 -5 -5 -5 -5 -6 -7 -7 -6 -7 -6 -6 -6 -6 -6 -6 -6 -6 -6 -6
-8 -8 -8 -8 -8 -8 -8 -8 -8 -7 -7 -7 -6 -6 -6 -6 -6 -6 -6 -5 -5 -5 -8 -9 -9 -10 -9 -8 -8 -7 -7 -7 -8 -7 -7 -7 -7 -7
-9 -9 -9 -9 -9 -9 -9 -9 -9 -9 -9 -9 -8 -8 -8 -8 -8 -8 -8 -8 -7 -7 -9 -10 -12 -12 -11 -10 -9 -9 -9 -9 -9 -9 -9 -9 -9 -9
-9 -9 -10 -10 -10 -10 -10 -10 -10 -10 -10 -10 -10 -11 -10 -10 -10 -10 -10 -10 -9 -9 -9 -10 -11 -12 -12 -12 -11 -11 -11 -11 -11 -10 -10 -10 -10 -10
-11 -11 -11 -11 -11 -11 -11 -11 -11 -11 -11 -11 -11 -11 -11 -11 -12 -11 -11 -11 -11 -11 -11 -11 -12 -13 -14 -13 -13 -13 -13 -13 -12 -11 -11 -11 -11 -11
-12 -12 -12 -13 -13 -13 -12 -13 -13 -13 -12 -12 -13 -13 -13 -13 -12 -13 -13 -13 -13 -13 -12 -12 -12 -13 -13 -13 -14 -14 -14 -14 -14 -13 -13 -13 -13 -13
-13 -13 -13 -13 -13 -13 -14 -14 -14 -14 -14 -14 -14 -15 -15 -15 -15 -15 -14 -14 -14 -15 -15 -14 -14 -14 -14 -14 -13 -14 -14 -14 -14 -14 -14 -14 -14 -14
-13 -13 -13 -13 -13 -13 -14 -14 -15 -15 -15 -15 -16 -16 -16 -16 -16 -17 -16 -16 -15 -15 -15 -15 -16 -16 -16 -16 -15 -15 -15 -15 -15 -15 -15 -15 -15 -15
-14 -14 -14 -14 -14 -15 -15 -15 -16 -16 -16 -17 -17 -17 -17 -17 -17 -18 -18 -18 -18 -17 -17 -17 -17 -17 -17 -17 -16 -16 -16 -16 -16 -16 -16 -16 -16 -16
-16 -16 -15 -15 -16 -16 -16 -17 -18 -18 -18 -18 -19 -19 -19 -20 -19 -19 -19 -19 -19 -19 -19 -18 -18 -19 -18 -18 -18 -18 -17 -17 -17 -18 -18 -18 -18 -18
-17 -17 -17 -17 -17 -17 -17 -18 -19 -19 -20 -20 -20 -21 -21 -21 -21 -21 -21 -21 -21 -20 -20 -20 -20 -20 -20 -20 -20 -20 -20 -20 -19 -19 -19 -19 -19 -19
-18 -18 -18 -18 -18 -18 -19 -19 -20 -20 -21 -22 -22 -23 -23 -23 -23 -23 -23 -23 -23 -22 -22 -22 -22 -21 -21 -21 -21 -21 -21 -21 -21 -21 -21 -20 -20 -20
-19 -19 -19 -19 -20 -20 -21 -21 -22 -22 -22 -23 -24 -24 -24 -24 -24 -24 -24 -24 -24 -24 -24 -24 -23 -23 -24 -23 -23 -22 -23 -23 -23 -23 -23 -23 -22 -22
-20 -20 -20 -21 -21 -22 -23 -23 -24 -24 -24 -24 -24 -25 -26 -26 -26 -26 -26 -26 -26 -25 -25 -25 -25 -25 -24 -24 -24 -24 -24 -24 -24 -24 -24 -24 -24 -24
-21 -21 -22 -22 -23 -24 -25 -25 -25 -25 -25 -26 -26 -26 -26 -27 -27 -27 -27 -27 -27 -27 -27 -26 -26 -26 -26 -26 -26 -25 -25 -25 -26 -26 -26 -26 -26 -25
-22 -22 -23 -24 -25 -26 -26 -26 -26 -26 -27 -27 -27 -27 -27 -28 -28 -28 -28 -28 -28 -28 -28 -28 -28 -28 -28 -28 -28 -27 -27 -27 -27 -27 -27 -27 -27 -27
Height
3039 3044 3047 3051 3063 3062 3070 3078 3081 3083 3089 3093 3097 3101 3105 3110 3112 3114 3118 3121 3124 3127 3130 3135 3139 3142 3144 3146 3148 3149 3152 3155 3159 3162 3163 3164 3166 3167
3032 3036 3041 3045 3050 3055 3060 3065 3068 3075 3078 3085 3085 3095 3099 3103 3105 3107 3111 3113 3115 3118 3122 3128 3131 3133 3136 3138 3141 3141 3143 3147 3150 3151 3155 3157 3158 3159
3023 3026 3032 3036 3041 3045 3051 3056 3058 3067 3069 3073 3080 3083 3087 3092 3095 3098 3101 3104 3106 3110 3114 3119 3121 3124 3128 3130 3133 3134 3135 3138 3142 3145 3145 3148 3149 3151
3014 3018 3023 3026 3030 3036 3041 3046 3052 3055 3059 3066 3069 3074 3077 3080 3085 3088 3091 3094 3096 3099 3104 3108 3111 3114 3118 3120 3122 3125 3125 3127 3131 3134 3136 3137 3141 3143
3008 3012 3016 3019 3022 3025 3029 3033 3037 3043 3048 3053 3058 3062 3067 3069 3073 3076 3079 3084 3085 3088 3094 3099 3101 3103 3106 3109 3111 3112 3115 3118 3121 3123 3126 3127 3130 3131
3000 3005 3009 3010 3013 3017 3021 3024 3027 3031 3036 3041 3046 3050 3054 3058 3060 3063 3066 3070 3072 3076 3080 3085 3089 3091 3096 3099 3100 3101 3104 3108 3110 3113 3116 3118 3120 3121
2991 2995 2997 3000 3004 3008 3012 3015 3018 3021 3026 3030 3035 3038 3041 3045 3050 3054 3054 3056 3058 3061 3066 3070 3076 3081 3084 3086 3088 3091 3093 3096 3099 3102 3104 3107 3108 3109
2983 2986 2989 2992 2995 2999 3002 3005 3009 3011 3015 3018 3022 3025 3028 3032 3035 3039 3043 3046 3047 3050 3050 3055 3061 3067 3072 3074 3078 3080 3082 3084 3088 3090 3091 3095 3096 3097
2977 2980 2983 2986 2988 2991 2994 2998 3000 3002 3004 3007 3009 3012 3015 3019 3023 3026 3029 3031 3034 3038 3038 3045 3050 3055 3061 3063 3066 3068 3072 3074 3075 3077 3079 3081 3083 3085
2971 2974 2977 2979 2982 2985 2988 2990 2993 2994 2996 2998 3000 3004 3005 3007 3011 3013 3016 3017 3019 3022 3025 3031 3038 3042 3048 3051 3052 3054 3058 3061 3064 3066 3068 3069 3069 3071
2967 2969 2972 2975 2976 2978 2979 2982 2984 2986 2987 2990 2992 2995 2997 2999 3001 3003 3008 3009 3008 3011 3013 3018 3025 3028 3033 3038 3040 3042 3045 3048 3052 3053 3053 3055 3056 3056
2961 2964 2967 2968 2970 2971 2972 2974 2976 2976 2979 2981 2982 2985 2988 2991 2993 2995 2996 2998 3001 3004 3007 3009 3012 3016 3020 3024 3026 3029 3032 3035 3037 3037 3040 3041 3042 3042
2956 2958 2959 2960 2962 2962 2963 2967 2968 2969 2968 2971 2973 2975 2977 2981 2983 2986 2988 2990 2992 2994 2998 3000 3004 3006 3008 3012 3014 3017 3020 3022 3024 3024 3025 3026 3027 3027
2950 2952 2952 2952 2953 2955 2957 2955 2956 2959 2960 2963 2965 2967 2968 2971 2972 2975 2977 2979 2983 2986 2988 2989 2992 2995 2996 2998 3000 3004 3006 3008 3009 3011 3011 3011 3012 3013
2943 2944 2945 2945 2946 2946 2947 2947 2949 2949 2950 2952 2954 2956 2958 2961 2961 2965 2967 2968 2972 2974 2976 2978 2980 2981 2983 2985 2986 2990 2993 2995 2994 2994 2996 2995 2996 2996
2936 2937 2938 2939 2940 2940 2940 2940 2940 2940 2940 2941 2943 2944 2947 2950 2951 2953 2955 2958 2960 2962 2964 2965 2967 2968 2969 2971 2972 2972 2974 2976 2979 2980 2979 2978 2978 2979
2931 2931 2931 2931 2929 2929 2930 2931 2931 2931 2931 2932 2932 2932 2934 2936 2938 2940 2942 2944 2947 2948 2951 2952 2953 2953 2954 2955 2956 2959 2960 2960 2962 2962 2961 2962 2962 2963
2923 2923 2923 2923 2922 2921 2920 2920 2919 2919 2920 2920 2920 2921 2922 2924 2925 2927 2930 2931 2933 2934 2936 2938 2939 2939 2940 2942 2943 2943 2944 2944 2944 2946 2946 2946 2947 2950
2914 2914 2913 2913 2913 2913 2912 2911 2910 2910 2909 2908 2908 2909 2910 2911 2912 2913 2916 2918 2918 2921 2923 2924 2924 2925 2926 2926 2930 2930 2929 2929 2928 2929 2929 2930 2930 2931
2904 2903 2903 2903 2903 2902 2901 2901 2901 2900 2900 2898 2898 2898 2898 2899 2899 2900 2902 2903 2905 2907 2908 2909 2910 2912 2912 2913 2912 2915 2915 2915 2915 2913 2913 2913 2913 2913
2895 2895 2894 2893 2892 2891 2890 2890 2890 2889 2888 2889 2889 2888 2888 2888 2888 2889 2890 2890 2891 2892 2894 2895 2897 2897 2897 2898 2900 2901 2904 2903 2901 2899 2898 2896 2895 2894
2887 2886 2885 2884 2883 2882 2882 2881 2880 2879 2879 2879 2879 2878 2878 2877 2878 2878 2879 2880 2881 2881 2881 2883 2884 2884 2884 2884 2885 2885 2887 2887 2887 2885 2884 2881 2879 2877
2878 2878 2877 2876 2876 2875 2874 2873 2872 2871 2870 2868 2868 2868 2867 2867 2867 2868 2869 2870 2871 2872 2872 2873 2873 2873 2873 2873 2872 2872 2872 2872 2872 2872 2873 2873 2870 2867
Wind_Speed
53 53 55 58 58 52 54 46 47 46 49 47 41 38 44 36 43 41 28 35 43 41 36 28 27 31 32 32 32 31 29 30 31 31 31 31 31 30
53 57 53 47 61 52 51 53 50 44 43 52 48 46 44 44 51 44 36 37 46 37 34 30 27 31 32 33 35 33 32 33 35 34 36 35 35 33
46 43 54 56 55 55 53 54 46 53 50 53 50 46 47 47 52 45 44 47 39 36 36 32 35 35 36 38 39 38 36 36 36 36 35 36 37 37
32 36 44 43 47 51 52 56 56 51 52 53 51 50 55 54 46 50 52 53 46 43 39 37 39 40 42 41 40 42 39 38 38 39 40 38 39 39
31 30 32 36 36 36 41 45 48 57 51 51 55 51 59 60 58 59 56 54 45 44 43 42 46 47 49 50 47 45 45 42 41 42 42 41 42 42
39 41 38 34 30 31 33 34 37 38 44 49 56 51 53 55 62 65 63 63 57 52 48 49 52 53 52 52 50 47 47 45 45 45 44 44 45 45
33 35 37 42 46 36 35 37 36 37 38 37 39 46 53 49 49 61 67 68 62 59 57 53 55 53 52 51 50 50 48 47 47 47 48 48 47 46
25 27 30 33 36 38 41 43 39 37 38 41 44 42 43 47 51 52 55 64 66 61 57 53 53 53 53 50 50 51 50 48 50 50 50 50 48 48
21 22 23 25 26 27 29 31 32 35 38 39 40 41 43 44 46 49 52 54 56 60 49 45 46 47 48 50 50 52 52 51 50 51 49 49 49 50
18 19 21 22 23 25 26 27 28 29 30 31 35 37 38 39 41 44 45 48 51 53 52 49 46 47 48 50 51 51 51 50 50 50 51 50 51 51
19 20 22 23 25 26 25 25 26 27 29 31 31 32 34 38 39 41 43 45 47 50 52 52 51 52 49 48 48 48 47 48 50 51 52 53 54 53
21 22 23 24 26 28 28 29 29 29 29 30 31 33 35 35 35 39 40 41 44 49 50 52 52 49 48 49 49 51 53 53 54 53 52 54 56 59
18 21 24 26 28 30 33 32 31 33 35 34 33 34 34 35 36 37 35 36 38 41 45 50 51 52 53 52 50 50 53 55 57 58 60 60 62 63
17 19 21 26 28 30 31 35 38 37 37 37 36 37 37 37 37 38 39 39 40 40 43 47 49 51 53 55 58 58 58 59 60 61 61 62 61 60
17 19 22 24 27 28 31 35 36 40 43 42 42 40 40 40 41 42 43 44 45 45 46 47 48 49 51 53 56 57 59 60 60 61 60 60 61 62
20 21 22 23 25 27 29 32 34 38 42 44 46 46 45 44 43 43 44 45 47 49 50 50 51 52 54 56 57 59 60 60 60 60 61 62 63 63
18 20 22 23 25 27 28 28 30 32 36 40 43 46 47 47 47 47 46 46 46 47 48 49 51 52 54 56 58 60 61 62 61 60 58 58 58 57
19 20 21 23 25 27 29 30 31 31 32 34 37 40 44 46 48 49 49 49 48 48 48 46 45 47 51 54 55 56 56 56 57 57 57 58 57 54
20 22 23 24 25 26 27 29 30 32 34 34 34 35 37 40 44 47 49 49 50 50 50 50 50 51 54 57 57 55 54 54 54 53 52 51 53 52
22 24 25 26 26 27 28 28 28 29 30 33 34 34 35 36 37 39 42 47 49 49 49 49 51 51 50 50 52 52 49 50 49 50 51 52 53 54
24 25 26 26 26 26 26 27 27 28 29 29 30 33 34 35 36 36 36 36 38 41 46 49 50 52 55 56 57 56 54 53 55 57 58 58 58 59
24 25 25 26 26 26 25 26 26 26 27 28 29 31 33 35 35 33 33 33 33 34 35 36 36 37 39 41 44 46 48 47 45 44 46 49 52 55
24 24 24 24 25 25 26 26 27 26 27 28 29 29 30 32 35 35 32 31 31 32 32 33 34 35 36 37 39 40 41 42 44 46 47 46 49 52
Wind_Direction
218 233 229 226 229 227 237 229 233 235 237 233 242 252 232 246 241 238 251 260 256 253 230 229 233 239 241 241 240 239 244 245 248 249 249 251 251 252
241 236 237 238 235 234 229 236 228 245 237 235 248 244 246 252 237 242 253 249 252 231 226 233 237 240 242 244 246 243 242 246 247 247 250 252 252 254
245 247 243 242 238 235 240 237 242 237 242 242 246 236 246 241 226 245 244 242 229 235 225 232 237 244 246 246 247 249 247 248 253 255 252 253 256 257
252 253 251 252 251 250 250 246 243 240 237 235 228 238 237 228 244 242 237 236 235 239 237 230 228 234 243 251 249 250 248 249 251 254 256 257 260 261
253 249 253 252 246 255 258 256 251 243 240 238 239 239 234 231 240 235 234 232 235 236 234 235 236 241 245 248 248 250 253 252 253 255 256 256 258 260
247 250 253 253 254 254 255 254 252 253 250 248 243 244 243 247 242 232 229 232 235 237 234 236 241 243 244 246 247 248 250 252 254 256 258 259 260 261
242 245 249 253 257 254 254 253 258 259 258 255 255 255 250 245 247 242 235 232 234 235 234 234 238 241 243 245 246 248 249 250 253 255 256 257 259 261
244 245 244 244 246 247 249 252 250 249 251 255 254 251 253 249 247 246 247 245 239 235 231 233 236 240 243 243 245 246 247 249 252 254 256 259 260 261
255 254 253 254 254 255 254 256 256 257 254 251 250 251 251 250 249 250 249 247 247 242 237 240 241 244 247 246 247 248 250 251 251 254 256 258 260 262
252 256 261 264 264 262 261 262 261 259 261 261 258 254 252 253 253 252 247 248 247 243 236 235 235 239 244 245 246 246 249 252 255 256 258 257 258 259
251 252 254 256 258 261 264 265 263 262 261 258 253 253 256 255 252 252 252 250 245 240 234 234 233 234 237 242 246 249 251 253 255 255 256 257 258 258
259 263 264 264 264 266 264 263 265 266 265 263 260 257 256 252 251 250 246 248 249 248 243 241 237 236 239 243 246 250 251 251 250 251 254 257 261 263
266 263 261 260 260 264 265 267 265 264 264 262 262 263 262 257 252 251 252 251 249 249 248 247 247 246 246 247 244 245 247 249 252 253 256 258 263 267
275 273 271 269 268 265 265 265 265 266 267 267 266 263 261 261 261 257 252 249 250 250 250 250 251 249 249 250 250 250 252 253 255 258 262 265 268 270
278 279 279 280 280 277 274 272 267 266 266 265 262 261 261 260 258 258 259 258 253 250 251 251 253 255 255 254 255 256 257 259 262 265 267 268 269 272
288 288 288 286 285 283 279 276 273 269 268 267 265 264 260 258 257 256 254 254 256 256 256 255 254 256 257 258 258 258 259 261 261 262 266 268 270 272
293 292 293 293 292 290 286 281 276 272 269 266 265 264 263 261 258 257 256 255 254 254 253 254 255 257 257 259 260 261 264 266 267 269 268 268 267 269
297 296 295 294 294 292 290 286 283 278 273 269 266 263 262 261 259 259 258 257 256 255 255 254 253 254 255 257 259 263 265 267 268 268 269 271 271 270
300 300 300 300 298 294 290 288 285 282 279 274 270 268 264 260 257 258 256 257 259 259 259 259 258 259 260 263 265 267 268 269 270 270 271 270 270 269
301 303 303 301 300 298 296 292 286 282 280 277 273 269 267 266 264 261 259 259 258 257 256 258 260 263 264 264 265 265 267 271 271 271 271 272 272 271
296 299 301 301 300 299 297 293 290 288 285 282 278 272 269 269 268 267 266 266 265 262 261 260 260 258 258 259 262 265 265 264 267 270 271 271 271 271
291 295 297 299 300 300 299 296 293 291 287 283 280 277 273 269 267 267 269 269 267 268 268 265 263 262 263 264 264 264 263 262 263 264 267 272 276 275
285 288 293 296 298 299 298 297 296 294 293 288 281 276 270 267 265 267 266 266 266 264 264 264 264 265 267 267 268 267 267 267 268 266 265 267 270 271